Location: Grange Verzio
(44.5000°N, 6.9833°E)
Time: 13:00:22
(UTC+00:00)

deb Kosmos-375 - Visible Passes

Search period start: 23 February 2024 00:00
Search period end: 04 March 2024 00:00
Orbit: 538 x 1703 km, 62.7° (Epoch: 21 February)

Date Brightness Start Highest point End Pass type
(mag) Time Alt. Az. Time Alt. Az. Time Alt. Az.
23 Feb ? 18:08:36 10° NW 18:12:50 17° N 18:17:48 10° NE visible
23 Feb ? 20:00:31 10° NNW 20:06:50 29° NNE 20:07:05 29° NNE visible
23 Feb ? 21:51:27 10° NW 21:54:50 30° NNW 21:54:50 30° NNW visible
24 Feb ? 19:19:52 10° NNW 19:25:36 24° NNE 19:27:54 22° NE visible
24 Feb ? 21:10:50 10° NW 21:15:39 41° NNW 21:15:39 41° NNW visible
24 Feb ? 23:02:14 10° NW 23:03:24 15° NW 23:03:24 15° NW visible
25 Feb ? 18:39:08 10° NNW 18:44:17 21° NNE 18:48:44 14° NE visible
25 Feb ? 20:30:14 10° NNW 20:36:29 44° NNE 20:36:29 44° NNE visible
25 Feb ? 22:21:23 10° NW 22:24:15 26° NW 22:24:15 26° NW visible
26 Feb ? 17:58:14 10° NNW 18:02:54 19° NNE 18:08:22 10° NE visible
26 Feb ? 19:49:38 10° NNW 19:56:34 37° NE 19:57:20 36° NE visible
26 Feb ? 21:40:37 10° NW 21:45:06 40° NW 21:45:06 40° NW visible
27 Feb ? 19:09:00 10° NNW 19:15:24 30° NNE 19:18:12 25° ENE visible
27 Feb ? 20:59:55 10° NW 21:05:58 58° NNW 21:05:58 58° NNW visible
27 Feb ? 22:51:49 10° NW 22:53:44 18° WNW 22:53:44 18° WNW visible
28 Feb ? 18:28:19 10° NNW 18:34:08 25° NNE 18:39:06 16° ENE visible
28 Feb ? 20:19:15 10° NW 20:26:53 61° NE 20:26:53 61° NE visible
28 Feb ? 22:10:43 10° NW 22:14:38 29° WNW 22:14:38 29° WNW visible
29 Feb ? 17:47:32 10° NNW 17:52:47 21° NNE 17:59:02 10° ENE visible
29 Feb ? 19:38:36 10° NNW 19:46:03 48° NE 19:47:49 44° ENE visible
29 Feb ? 21:29:46 10° NW 21:35:35 48° WNW 21:35:35 48° WNW visible
01 Mar ? 18:57:57 10° NNW 19:04:57 39° NE 19:08:49 27° E visible
01 Mar ? 20:48:56 10° NW 20:56:35 76° W 20:56:35 76° W visible
01 Mar ? 22:41:42 10° WNW 22:44:21 17° W 22:44:21 17° W visible
02 Mar ? 18:17:16 10° NNW 18:23:45 31° NNE 18:29:52 16° E visible
02 Mar ? 20:08:11 10° NW 20:16:14 82° NE 20:17:39 68° ESE visible
02 Mar ? 22:00:11 10° NW 22:05:25 28° W 22:05:25 28° W visible
03 Mar ? 19:27:27 10° NW 19:35:17 65° NE 19:38:47 41° ESE visible
03 Mar ? 21:18:58 10° NW 21:26:34 42° WSW 21:26:34 42° WSW visible
